Flag for U.S.A. Weather past 2 weeks in Sterling Heights, Michigan, U.S.A.

Now
72 °F

Partly sunny.


Feels Like: 72 °F
Forecast: 63 / 81 °F
Wind: No wind

Location: Selfridge Air National Guard Base

Current Time: Aug 23, 2014 at 1:46:53 PM

Latest Report: Aug 23, 2014 at 12:55 PM


Visibility: 7 mi

Pressure: 30.08 "Hg

Humidity: 80%

Dew point: 65 °F

Location of Sterling HeightsLocation

Historic Weather in Sterling Heights — Graph

°F

Sterling Heights temperature yesterday

Maximum temperature yesterday: 80 °F (at 2:55 PM)
Minimum temperature yesterday: 66 °F (at 4:58 AM)
Average temperature yesterday: 72 °F

Past Weeks' High & Low Weather Summary

 TemperatureHumidityPressure
High83 °F (Aug 20, 3:55 PM)100% (Aug 11, 9:01 PM)30.17 "Hg (Aug 11, 9:01 PM)
Low51 °F (Aug 15, 6:58 AM)35% (Aug 15, 12:55 PM)29.63 "Hg (Aug 11, 9:01 PM)
Average68 °F73%29.95 "Hg
* Reported Aug 8 12:55 PM — Aug 23 12:55 PM, Sterling Heights, Weather by CustomWeather, © 2014

Note: Actual official high and low records may vary slightly from our data, if they occured in-between our weather recording intervals... More about our weather records

Advertising

Sterling Heights weather history for previous 24 hours

 ConditionsComfort  
Time TempWeatherWind HumidityBarometerVisibility
12:55 PM
Aug 23
72 °FPartly sunny.No wind80%30.08 "Hg7 mi
11:55 AM69 °FFog.5 mph86%30.10 "Hg6 mi
10:55 AM68 °FFog.5 mph89%30.07 "Hg5 mi
9:55 AM66 °FFog.6 mph98%30.06 "Hg3 mi
8:55 AM65 °FFog.6 mph99%30.05 "Hg2 mi
7:55 AM64 °FFog.7 mph99%30.06 "Hg1 mi
6:58 AM64 °FFog.5 mph99%30.04 "Hg1 mi
5:58 AM64 °FFog.6 mph99%30.02 "Hg1 mi
4:58 AM64 °FFog.7 mph99%30.01 "Hg1 mi
3:58 AM64 °FFog.6 mph98%30.01 "Hg6 mi
3:03 AM64 °FMostly cloudy.5 mph94%30.00 "Hg8 mi
2:58 AM64 °FPartly cloudy.3 mph94%30.00 "Hg9 mi
1:58 AM65 °FFog.6 mph91%30.02 "Hg5 mi
12:58 AM66 °FOvercast.6 mph86%30.03 "Hg9 mi
11:58 PM
Aug 22
67 °FOvercast.3 mph83%30.03 "Hg10 mi
10:58 PM67 °FOvercast.7 mph79%30.02 "Hg10 mi
9:58 PM68 °FPassing clouds.5 mph77%30.01 "Hg10 mi
8:58 PM71 °FOvercast.10 mph71%29.99 "Hg10 mi
7:55 PM73 °FPartly sunny.8 mph67%30.00 "Hg12 mi
6:55 PM74 °FPartly sunny.10 mph70%29.99 "Hg10 mi
5:55 PM78 °FBroken clouds.12 mph66%29.98 "Hg10 mi
4:56 PM79 °FBroken clouds.10 mph67%29.97 "Hg10 mi
3:55 PM80 °FScattered clouds.8 mph61%29.96 "Hg10 mi
2:55 PM80 °FScattered clouds.7 mph62%29.98 "Hg10 mi
1:55 PM80 °FPartly sunny.6 mph62%29.99 "Hg10 mi
Weather by CustomWeather, © 2014

See weather overviewHow to use our weather pages